Hailey, ID

3:51 AM MDT on July 27, 2017 (GMT -0600)
Friedman Memorial

Weather History for KSUN - May, 2013

Change the Weather History Date:

Monday, May 6, 2013

  Actual Average Record
Temperature  
Mean Temperature 55 °F -  
Max Temperature 68 °F 59 °F 75 °F (2004)
Min Temperature 42 °F 34 °F 28 °F (2003)
Degree Days  
Heating Degree Days 10    
Growing Degree Days 5 (Base 50)    
Moisture  
Dew Point 34 °F    
Average Humidity 52    
Maximum Humidity 66    
Minimum Humidity 24    
Precipitation  
Precipitation 0.00 in - - ()
Sea Level Pressure  
Sea Level Pressure 29.95 in    
Wind  
Wind Speed 13 mph (NW)    
Max Wind Speed 17 mph    
Max Gust Speed 29 mph    
Visibility 10 miles    
Events Rain , Thunderstorm    
Averages and records for this station are not official NWS values.
T = Trace of Precipitation, MM = Missing Value Source: NWS Daily Summary

Daily Weather History Graph

Daily Weather History Graph

Search for Another Location

Airport or City:

Trip Planner

Search our weather history database for the weather conditions in past years. The results will help you decide how hot, cold, wet, or windy it might be!

Date:

Astronomy

May. 06, 2013 Rise Set
Actual Time 6:22 AM MDT 8:45 PM MDT
Civil Twilight 5:50 AM MDT 9:17 PM MDT
Nautical Twilight 5:11 AM MDT 9:57 PM MDT
Astronomical Twilight 4:26 AM MDT 10:42 PM MDT
Moon 4:32 AM MDT (5/6) 5:45 PM MDT (5/6)
Length of Visible Light 15h 26m
Length of Day
14h 22m
Waning Crescent, 10% of the Moon is Illuminated
May 6
Waning Crescent
May 9
New
May 17
First Quarter
May 24
Full
May 31
Last Quarter

Hourly Weather History & Observations

Time (MDT) Temp. Windchill Dew Point Humidity Pressure Visibility Wind Dir Wind Speed Gust Speed Precip Events Conditions
12:15 AM 51.8 °F - 32.0 °F 47% 29.96 in 10.0 mi NW 13.8 mph - N/A   Clear
12:35 AM 50.0 °F - 32.0 °F 50% 29.96 in 10.0 mi NW 10.4 mph - N/A   Clear
12:55 AM 48.2 °F - 32.0 °F 54% 29.96 in 10.0 mi NW 11.5 mph 16.1 mph N/A   Clear
1:15 AM 48.2 °F - 32.0 °F 54% 29.96 in 10.0 mi NW 16.1 mph - N/A   Clear
1:35 AM 48.2 °F - 32.0 °F 54% 29.96 in 10.0 mi NW 13.8 mph 18.4 mph N/A   Clear
1:55 AM 46.4 °F 40.4 °F 32.0 °F 57% 29.96 in 10.0 mi NNW 13.8 mph 18.4 mph N/A   Clear
2:15 AM 46.4 °F 40.7 °F 32.0 °F 57% 29.96 in 10.0 mi NW 12.7 mph 19.6 mph N/A   Clear
2:35 AM 46.4 °F 39.8 °F 32.0 °F 57% 29.96 in 10.0 mi NW 16.1 mph 19.6 mph N/A   Clear
2:55 AM 46.4 °F 40.1 °F 32.0 °F 57% 29.96 in 10.0 mi NNW 15.0 mph - N/A   Clear
3:15 AM 44.6 °F 38.8 °F 32.0 °F 61% 29.96 in 10.0 mi NW 11.5 mph 18.4 mph N/A   Clear
3:35 AM 44.6 °F 38.8 °F 32.0 °F 61% 29.96 in 10.0 mi NNW 11.5 mph - N/A   Clear
3:55 AM 44.6 °F 38.4 °F 32.0 °F 61% 29.96 in 10.0 mi NW 12.7 mph 18.4 mph N/A   Clear
4:15 AM 44.6 °F 37.8 °F 32.0 °F 61% 29.96 in 10.0 mi NW 15.0 mph - N/A   Clear
4:35 AM 44.6 °F 38.8 °F 32.0 °F 61% 29.97 in 10.0 mi NW 11.5 mph - N/A   Clear
4:55 AM 42.8 °F 36.6 °F 32.0 °F 66% 29.97 in 10.0 mi NW 11.5 mph - N/A   Clear
5:15 AM 42.8 °F 35.8 °F 32.0 °F 66% 29.97 in 10.0 mi NW 13.8 mph 18.4 mph N/A   Clear
5:35 AM 42.8 °F 35.4 °F 32.0 °F 66% 29.96 in 10.0 mi NW 15.0 mph - N/A   Clear
5:55 AM 42.8 °F 35.4 °F 32.0 °F 66% 29.96 in 10.0 mi NW 15.0 mph - N/A   Clear
6:15 AM 42.8 °F 35.8 °F 32.0 °F 66% 29.96 in 10.0 mi NW 13.8 mph - N/A   Clear
6:35 AM 42.8 °F 35.1 °F 32.0 °F 66% 29.96 in 10.0 mi NW 16.1 mph 19.6 mph N/A   Clear
6:47 AM 42.8 °F 35.4 °F 30.2 °F 61% 29.96 in 10.0 mi WNW 15.0 mph - N/A   Partly Cloudy
6:55 AM 42.8 °F 35.4 °F 32.0 °F 66% 29.96 in 10.0 mi NW 15.0 mph 20.7 mph N/A   Clear
7:47 AM 44.6 °F 37.4 °F 30.2 °F 57% 29.97 in 10.0 mi NW 16.1 mph - N/A   Partly Cloudy
8:48 AM 51.8 °F - 30.2 °F 44% 29.96 in 10.0 mi NW 11.5 mph - N/A   Partly Cloudy
9:47 AM 57.2 °F - 30.2 °F 36% 29.96 in 10.0 mi NW 6.9 mph - N/A   Partly Cloudy
10:50 AM 62.6 °F - 33.8 °F 34% 29.95 in 10.0 mi SE 9.2 mph - N/A   Partly Cloudy
11:47 AM 66.2 °F - 28.4 °F 24% 29.94 in 10.0 mi SSE 9.2 mph 19.6 mph N/A   Scattered Clouds
12:47 PM 66.2 °F - 28.4 °F 24% 29.92 in 10.0 mi SSE 11.5 mph 19.6 mph N/A   Scattered Clouds
1:47 PM 68.0 °F - 33.8 °F 28% 29.91 in 10.0 mi SSE 13.8 mph 19.6 mph N/A   Scattered Clouds
2:47 PM 66.2 °F - 32.0 °F 28% 29.91 in 10.0 mi NW 13.8 mph 25.3 mph N/A   Mostly Cloudy
3:47 PM 64.4 °F - 32.0 °F 30% 29.91 in 10.0 mi NW 17.3 mph 28.8 mph N/A   Mostly Cloudy
4:47 PM 62.6 °F - 33.8 °F 34% 29.91 in 10.0 mi NW 17.3 mph 28.8 mph N/A   Mostly Cloudy
5:10 PM 62.6 °F - 35.6 °F 37% 29.90 in 10.0 mi NNW 15.0 mph 28.8 mph N/A Rain , Thunderstorm Light Thunderstorms and Rain
5:45 PM 64.4 °F - 51.8 °F 64% 30.15 in 10.0 mi SSE 9.2 mph - N/A   Clear
5:47 PM 59.0 °F - 37.4 °F 45% 29.94 in 10.0 mi ENE 15.0 mph - N/A Rain , Thunderstorm Light Thunderstorms and Rain
6:20 PM 57.2 °F - 39.2 °F 51% 29.94 in 10.0 mi NNE 9.2 mph - N/A   Mostly Cloudy
6:50 PM 57.2 °F - 37.4 °F 48% 29.92 in 10.0 mi NNW 11.5 mph - N/A   Mostly Cloudy
7:47 PM 57.2 °F - 37.4 °F 48% 29.92 in 10.0 mi NW 11.5 mph - N/A   Mostly Cloudy
8:47 PM 55.4 °F - 39.2 °F 54% 29.94 in 10.0 mi NNE 4.6 mph - N/A   Mostly Cloudy
9:47 PM 55.4 °F - 39.2 °F 54% 29.95 in 10.0 mi NNW 5.8 mph - N/A   Mostly Cloudy
10:47 PM 51.8 °F - 39.2 °F 62% 29.95 in 10.0 mi NNW 6.9 mph - N/A   Scattered Clouds
11:15 PM 51.8 °F - 37.4 °F 58% 29.95 in 10.0 mi NW 6.9 mph - N/A   Scattered Clouds
11:35 PM 51.8 °F - 37.4 °F 58% 29.95 in 10.0 mi WNW 10.4 mph - N/A   Clear
11:55 PM 50.0 °F - 37.4 °F 62% 29.95 in 10.0 mi NW 9.2 mph - N/A   Clear